Time,TemperatureF,DewpointF,PressureIn,WindDirection,WindDirectionDegrees,WindSpeedMPH,WindSpeedGustMPH,Humidity,HourlyPrecipIn,Conditions,Clouds,dailyrainin,SoftwareType,DateUTC
2015-03-04 00:05:00,54.0,52.6,29.93,WSW,239,2.0,21.0,95,0.00,,BKN033,-99.99,VWS V12.07,2015-03-04 05:05:00,
2015-03-04 00:21:00,54.3,52.3,29.93,SE,140,16.0,16.0,93,0.00,,BKN033,-99.99,VWS V12.07,2015-03-04 05:21:00,
2015-03-04 00:35:00,54.2,52.2,29.92,NNE,25,13.0,22.0,93,0.00,,BKN033,-99.99,VWS V12.07,2015-03-04 05:35:00,
2015-03-04 00:51:00,54.1,52.1,29.92,NW,326,10.0,11.0,93,0.00,,BKN055,-99.99,VWS V12.07,2015-03-04 05:51:00,
2015-03-04 01:05:00,54.1,52.1,29.92,East,93,3.0,31.0,93,0.00,,BKN055,-99.99,VWS V12.07,2015-03-04 06:05:00,
2015-03-04 01:21:00,54.1,51.8,29.92,East,95,2.0,18.0,92,0.00,,BKN055,-99.99,VWS V12.07,2015-03-04 06:21:00,
2015-03-04 01:35:00,54.2,51.9,29.91,NNE,33,2.0,18.0,92,0.00,,BKN055,-99.99,VWS V12.07,2015-03-04 06:35:00,
2015-03-04 01:51:00,54.2,51.9,29.91,SE,143,3.0,15.0,92,0.00,,OVC046,-99.99,VWS V12.07,2015-03-04 06:51:00,
2015-03-04 02:05:00,54.5,51.9,29.91,East,81,11.0,33.0,91,0.00,,OVC046,-99.99,VWS V12.07,2015-03-04 07:05:00,
2015-03-04 02:21:00,54.6,51.4,29.88,West,262,3.0,13.0,89,0.00,,OVC046,-99.99,VWS V12.07,2015-03-04 07:21:00,
2015-03-04 02:35:00,54.3,51.1,29.89,West,268,7.0,17.0,89,0.00,,OVC046,-99.99,VWS V12.07,2015-03-04 07:35:00,
2015-03-04 02:52:00,54.4,51.2,29.88,NNE,16,3.0,5.0,89,0.00,,OVC055,-99.99,VWS V12.07,2015-03-04 07:52:00,
2015-03-04 03:05:00,54.4,51.2,29.88,NNW,342,10.0,18.0,89,0.00,,OVC055,-99.99,VWS V12.07,2015-03-04 08:05:00,
2015-03-04 03:21:00,54.5,51.3,29.88,ESE,112,4.0,17.0,89,0.00,,OVC055,-99.99,VWS V12.07,2015-03-04 08:21:00,
2015-03-04 03:35:00,54.6,51.4,29.88,East,92,3.0,25.0,89,0.00,,OVC055,-99.99,VWS V12.07,2015-03-04 08:35:00,
2015-03-04 03:51:00,54.7,51.5,29.85,WSW,256,5.0,14.0,89,0.00,,BKN049,-99.99,VWS V12.07,2015-03-04 08:51:00,
2015-03-04 04:05:00,55.0,51.8,29.86,East,100,2.0,22.0,89,0.00,,BKN049,-99.99,VWS V12.07,2015-03-04 09:05:00,
2015-03-04 04:21:00,55.0,51.8,29.87,East,99,0.0,11.0,89,0.00,,BKN049,-99.99,VWS V12.07,2015-03-04 09:21:00,
2015-03-04 04:35:00,54.8,51.6,29.87,NE,42,5.0,14.0,89,0.00,,BKN049,-99.99,VWS V12.07,2015-03-04 09:35:00,
2015-03-04 04:51:00,54.7,51.5,29.88,East,80,3.0,6.0,89,0.00,,BKN050,-99.99,VWS V12.07,2015-03-04 09:51:00,
2015-03-04 05:05:00,54.3,51.4,29.87,East,86,6.0,27.0,90,0.00,,BKN050,-99.99,VWS V12.07,2015-03-04 10:05:00,
2015-03-04 05:21:00,54.3,51.4,29.87,NNE,17,3.0,6.0,90,0.00,,BKN050,-99.99,VWS V12.07,2015-03-04 10:21:00,
2015-03-04 05:35:00,54.3,51.4,29.87,SSE,163,10.0,22.0,90,0.00,,BKN050,-99.99,VWS V12.07,2015-03-04 10:35:00,
2015-03-04 05:51:00,54.2,51.3,29.87,NNE,23,9.0,11.0,90,0.00,,OVC055,-99.99,VWS V12.07,2015-03-04 10:51:00,
2015-03-04 06:05:00,54.1,51.5,29.87,NE,51,6.0,25.0,91,0.00,,OVC055,-99.99,VWS V12.07,2015-03-04 11:05:00,
2015-03-04 06:21:00,54.2,51.6,29.86,East,84,4.0,12.0,91,0.00,,OVC055,-99.99,VWS V12.07,2015-03-04 11:21:00,
2015-03-04 06:35:00,54.4,51.8,29.85,SE,124,9.0,23.0,91,0.00,,OVC055,-99.99,VWS V12.07,2015-03-04 11:35:00,
2015-03-04 06:51:00,54.7,51.8,29.86,ESE,123,7.0,12.0,90,0.00,,OVC055,-99.99,VWS V12.07,2015-03-04 11:51:00,
2015-03-04 07:05:00,54.5,51.9,29.86,SSW,200,10.0,17.0,91,0.00,,OVC055,-99.99,VWS V12.07,2015-03-04 12:05:00,
2015-03-04 07:21:00,54.4,52.1,29.87,SW,227,5.0,13.0,92,0.00,,OVC055,-99.99,VWS V12.07,2015-03-04 12:21:00,
2015-03-04 07:35:00,54.3,52.0,29.87,ENE,67,0.0,25.0,92,0.00,,OVC055,-99.99,VWS V12.07,2015-03-04 12:35:00,
2015-03-04 07:51:00,54.6,52.3,29.88,East,96,11.0,22.0,92,0.00,,OVC055,-99.99,VWS V12.07,2015-03-04 12:51:00,
2015-03-04 08:05:00,55.2,52.6,29.87,SSE,160,3.0,22.0,91,0.00,,OVC055,-99.99,VWS V12.07,2015-03-04 13:05:00,
2015-03-04 08:21:00,55.7,52.5,29.86,South,169,22.0,22.0,89,0.00,,OVC055,-99.99,VWS V12.07,2015-03-04 13:21:00,
2015-03-04 08:35:00,56.2,52.4,29.87,East,92,5.0,22.0,87,0.00,,OVC055,-99.99,VWS V12.07,2015-03-04 13:35:00,
2015-03-04 08:52:00,56.6,52.5,29.88,SE,142,7.0,10.0,86,0.00,,BKN055,-99.99,VWS V12.07,2015-03-04 13:52:00,
2015-03-04 09:05:00,57.1,52.6,29.88,SW,214,6.0,20.0,85,0.00,,BKN055,-99.99,VWS V12.07,2015-03-04 14:05:00,
2015-03-04 09:21:00,57.2,52.1,29.87,ESE,113,11.0,28.0,83,0.00,,BKN055,-99.99,VWS V12.07,2015-03-04 14:21:00,
2015-03-04 09:35:00,57.6,52.5,29.87,ENE,76,3.0,28.0,83,0.00,,BKN055,-99.99,VWS V12.07,2015-03-04 14:35:00,
2015-03-04 09:51:00,58.0,52.2,29.86,ESE,111,12.0,31.0,81,0.00,,FEW060,-99.99,VWS V12.07,2015-03-04 14:51:00,
2015-03-04 10:05:00,58.9,52.8,29.85,North,5,7.0,31.0,80,0.00,,FEW060,-99.99,VWS V12.07,2015-03-04 15:05:00,
2015-03-04 10:21:00,59.4,52.2,29.85,SE,127,17.0,17.0,77,0.00,,FEW060,-99.99,VWS V12.07,2015-03-04 15:21:00,